Zurück zum Katalog

ARIANE 1 DEB

AktivGTO
NORAD 28556·DEBRIS·🇫🇷 France

Gestartet Dec 24, 1979 von Guiana Space Centre

Loading…

TLE

VeraltetSource: Space-Track

Epoche: Sep 13, 2026, 06:31 UTC

1 28556U 79104V   26256.27209477 -.00000295  00000-0  11492-1 0  9991
2 28556  15.3659 222.0272 7293432 109.4153   2.2421  1.95678942 97083

Verfolge ARIANE 1 DEB in Echtzeit mit AllMySat

Download on the App Store